Regional Weather Roundup
Issued by NWS Charleston, WV

Home | Current Version | Previous Version | Graphics & Text | Print | Product List | Glossary On
Versions: 1 2 3 4 5 6 7 8 9 10 11 12 13 14 15 16 17 18 19 20 21 22 23 24 25 26 27 28 29 30 31 32 33 34 35 36 37 38 39 40 41 42 43 44 45 46 47 48 49 50
071
ASUS41 KRLX 100210
RWRRLX
West Virginia Regional Weather Roundup
National Weather Service Charleston WV
900 PM EST TUE FEB 09 2016

Note: "fair" indicates few or no clouds below 12,000 feet with no
significant weather and/or obstructions to visibility.

WVZ003-100300-
Northern Panhandle of West Virginia

CITY           SKY/WX    TMP DP  RH WIND       PRES   REMARKS
WHEELING       CLOUDY    24  18  77 W12G20    29.72R
$$

WVZ009-100300-
Northwest West Virginia

CITY           SKY/WX    TMP DP  RH WIND       PRES   REMARKS
PARKERSBURG    LGT SNOW  24  20  84 SW7       29.83R FOG
$$

WVZ006-100300-
Western West Virginia

CITY           SKY/WX    TMP DP  RH WIND       PRES   REMARKS
HUNTINGTON     FLURRIES  24  17  74 SW6       29.88R
$$

WVZ015-100300-
West Central West Virginia

CITY           SKY/WX    TMP DP  RH WIND       PRES   REMARKS
CHARLESTON     LGT SNOW  23  19  85 SW12      29.85R VSB 1
$$

WVZ022-031-100300-
North Central West Virginia

CITY           SKY/WX    TMP DP  RH WIND       PRES   REMARKS
CLARKSBURG     LGT SNOW  22  19  89 SW10      29.76S
MORGANTOWN     LGT SNOW  22  17  81 SW8       29.74S
$$

WVZ025-035-042-045-100300-
Southern West Virginia

CITY           SKY/WX    TMP DP  RH WIND       PRES   REMARKS
BECKLEY        LGT SNOW  17  12  80 W9        29.75S WCI   6
LOGAN          CLOUDY    21  18  86 W5G13     29.83R
BLUEFIELD      FLURRIES  15  10  80 W13G20    29.73S WCI   1
LEWISBURG      FLURRIES  21  15  76 W8        29.74R
$$

WVZ047-100300-
Northern Mountains of West Virginia

CITY           SKY/WX    TMP DP  RH WIND       PRES   REMARKS
ELKINS         FLURRIES  20  12  71 SW8       29.73S
$$

WVZ052-100300-
Eastern Panhandle of West Virginia

CITY           SKY/WX    TMP DP  RH WIND       PRES   REMARKS
MARTINSBURG    CLOUDY    30  17  58 W13G25    29.68R
PETERSBURG     CLOUDY    28  13  54 CALM      29.73R
$$




USA.gov is the U.S. government's official web portal to all federal, state and local government web resources and services.